TimeCST,TemperatureF,Dew PointF,Humidity,Sea Level PressureIn,VisibilityMPH,Wind Direction,Wind SpeedMPH,Gust SpeedMPH,PrecipitationIn,Events,Conditions,WindDirDegrees,DateUTC
12:15 AM,29.1,25.2,85,30.02,10.0,SSE,9.2,-,N/A,,Scattered Clouds,160,2013-03-03 06:15:00
12:35 AM,28.2,24.8,87,30.01,10.0,South,8.1,-,N/A,,Scattered Clouds,170,2013-03-03 06:35:00
12:55 AM,28.0,24.6,87,30.00,10.0,SSE,10.4,-,N/A,,Mostly Cloudy,160,2013-03-03 06:55:00
1:15 AM,27.5,24.3,88,29.99,10.0,South,8.1,-,N/A,,Mostly Cloudy,180,2013-03-03 07:15:00
1:35 AM,27.5,24.3,88,29.99,10.0,South,8.1,-,N/A,,Scattered Clouds,180,2013-03-03 07:35:00
1:55 AM,27.5,23.9,86,29.98,10.0,South,5.8,-,N/A,,Clear,170,2013-03-03 07:55:00
2:15 AM,27.1,23.9,88,29.97,10.0,South,8.1,-,N/A,,Clear,170,2013-03-03 08:15:00
2:35 AM,26.6,23.5,88,29.96,10.0,South,4.6,-,N/A,,Clear,170,2013-03-03 08:35:00
2:55 AM,26.6,23.7,89,29.96,10.0,South,5.8,-,N/A,,Clear,170,2013-03-03 08:55:00
3:15 AM,26.2,23.4,89,29.96,10.0,South,4.6,-,N/A,,Clear,170,2013-03-03 09:15:00
3:35 AM,26.4,23.5,89,29.95,10.0,SSE,8.1,-,N/A,,Clear,150,2013-03-03 09:35:00
3:55 AM,26.1,23.2,89,29.94,10.0,SSE,9.2,-,N/A,,Clear,160,2013-03-03 09:55:00
4:15 AM,26.1,23.5,90,29.94,10.0,SSE,6.9,-,N/A,,Clear,160,2013-03-03 10:15:00
4:35 AM,25.7,23.0,89,29.93,10.0,SSE,8.1,-,N/A,,Clear,160,2013-03-03 10:35:00
4:55 AM,25.5,23.0,90,29.93,7.0,SSE,4.6,-,N/A,,Clear,150,2013-03-03 10:55:00
5:15 AM,25.3,23.0,91,29.94,7.0,SSE,4.6,-,N/A,,Clear,160,2013-03-03 11:15:00
5:35 AM,25.3,23.0,91,29.93,7.0,SSE,4.6,-,N/A,,Clear,160,2013-03-03 11:35:00
5:55 AM,25.0,22.8,91,29.93,7.0,SSE,3.5,-,N/A,,Clear,160,2013-03-03 11:55:00
6:15 AM,24.8,22.8,92,29.92,7.0,SSE,4.6,-,N/A,,Clear,160,2013-03-03 12:15:00
6:35 AM,24.8,22.8,92,29.92,5.0,SSE,6.9,-,N/A,,Clear,160,2013-03-03 12:35:00
6:55 AM,24.8,22.8,92,29.92,5.0,South,3.5,-,N/A,,Clear,170,2013-03-03 12:55:00
7:15 AM,24.8,22.8,92,29.91,5.0,SE,9.2,-,N/A,,Clear,140,2013-03-03 13:15:00
7:35 AM,24.8,23.0,93,29.91,5.0,SE,6.9,-,N/A,,Clear,140,2013-03-03 13:35:00
7:55 AM,24.8,23.0,93,29.91,5.0,SE,9.2,-,N/A,,Clear,140,2013-03-03 13:55:00
8:15 AM,25.7,23.4,91,29.91,5.0,SE,9.2,-,N/A,,Clear,140,2013-03-03 14:15:00
8:35 AM,26.2,23.5,90,29.91,5.0,SSE,9.2,-,N/A,,Clear,150,2013-03-03 14:35:00
8:55 AM,27.1,23.9,88,29.91,5.0,SSE,9.2,-,N/A,,Clear,150,2013-03-03 14:55:00
9:15 AM,28.2,24.4,86,29.90,5.0,SSE,11.5,-,N/A,,Clear,150,2013-03-03 15:15:00
9:35 AM,29.1,24.8,84,29.89,7.0,SSE,12.7,-,N/A,,Clear,150,2013-03-03 15:35:00
9:55 AM,29.7,25.5,85,29.88,7.0,SSE,12.7,-,N/A,,Clear,150,2013-03-03 15:55:00
10:15 AM,30.4,26.4,85,29.88,5.0,SSE,10.4,-,N/A,,Clear,150,2013-03-03 16:15:00
10:35 AM,31.1,26.8,84,29.88,7.0,SSE,9.2,-,N/A,,Clear,150,2013-03-03 16:35:00
10:55 AM,31.8,27.3,83,29.88,7.0,SSE,10.4,-,N/A,,Scattered Clouds,160,2013-03-03 16:55:00
11:15 AM,32.0,27.5,83,29.86,7.0,SSE,10.4,-,N/A,,Scattered Clouds,150,2013-03-03 17:15:00
11:35 AM,32.5,28.2,84,29.85,5.0,SE,11.5,-,N/A,,Haze,140,2013-03-03 17:35:00
11:55 AM,33.1,28.4,83,29.84,7.0,SE,11.5,-,N/A,,Mostly Cloudy,140,2013-03-03 17:55:00
12:15 PM,33.8,28.6,81,29.84,7.0,SE,11.5,-,N/A,,Mostly Cloudy,140,2013-03-03 18:15:00
12:35 PM,34.2,28.9,81,29.83,7.0,SE,12.7,-,N/A,,Mostly Cloudy,130,2013-03-03 18:35:00
12:55 PM,34.3,29.1,81,29.82,7.0,SE,11.5,-,N/A,,Mostly Cloudy,130,2013-03-03 18:55:00
1:15 PM,34.9,29.3,80,29.81,7.0,SE,13.8,-,N/A,,Mostly Cloudy,140,2013-03-03 19:15:00
1:35 PM,35.6,29.7,79,29.80,7.0,SE,12.7,18.4,N/A,,Scattered Clouds,140,2013-03-03 19:35:00
1:55 PM,35.4,29.7,80,29.78,7.0,SE,12.7,-,N/A,,Clear,130,2013-03-03 19:55:00
2:15 PM,35.2,29.5,80,29.78,7.0,SE,13.8,18.4,N/A,,Scattered Clouds,140,2013-03-03 20:15:00
2:35 PM,35.6,29.7,79,29.78,7.0,SE,12.7,-,N/A,,Mostly Cloudy,140,2013-03-03 20:35:00
2:55 PM,35.6,29.8,80,29.78,7.0,SE,9.2,-,N/A,,Overcast,140,2013-03-03 20:55:00
3:15 PM,35.6,29.7,79,29.77,7.0,SE,13.8,19.6,N/A,,Overcast,130,2013-03-03 21:15:00
3:35 PM,35.6,30.2,81,29.76,7.0,SE,11.5,18.4,N/A,,Overcast,140,2013-03-03 21:35:00
3:55 PM,35.6,30.2,81,29.75,5.0,SE,15.0,-,N/A,,Haze,140,2013-03-03 21:55:00
4:15 PM,35.6,30.0,80,29.74,5.0,SE,13.8,18.4,N/A,,Haze,130,2013-03-03 22:15:00
4:35 PM,35.4,30.4,82,29.73,5.0,SE,12.7,-,N/A,,Haze,140,2013-03-03 22:35:00
4:55 PM,35.2,30.0,81,29.71,7.0,ESE,15.0,-,N/A,,Overcast,120,2013-03-03 22:55:00
5:15 PM,35.2,29.8,81,29.72,7.0,SSE,12.7,24.2,N/A,,Mostly Cloudy,150,2013-03-03 23:15:00
5:35 PM,35.1,29.8,81,29.70,7.0,ESE,11.5,21.9,N/A,,Mostly Cloudy,120,2013-03-03 23:35:00
5:55 PM,34.9,29.8,82,29.76,7.0,South,13.8,17.3,N/A,,Mostly Cloudy,180,2013-03-03 23:55:00
6:35 PM,34.7,29.8,82,29.72,7.0,ESE,16.1,-,N/A,,Overcast,120,2013-03-04 00:35:00
6:55 PM,34.3,29.3,82,29.74,7.0,SSE,9.2,21.9,N/A,,Overcast,160,2013-03-04 00:55:00
7:15 PM,34.2,28.9,81,29.73,10.0,SE,12.7,21.9,N/A,,Overcast,140,2013-03-04 01:15:00
7:35 PM,34.3,28.8,80,29.74,10.0,SE,12.7,-,N/A,,Overcast,140,2013-03-04 01:35:00
7:55 PM,34.0,29.3,83,29.74,10.0,SE,11.5,-,N/A,,Overcast,140,2013-03-04 01:55:00
8:15 PM,33.8,29.1,83,29.74,10.0,SE,12.7,-,N/A,,Mostly Cloudy,140,2013-03-04 02:15:00
8:35 PM,33.6,28.9,83,29.74,10.0,SE,13.8,18.4,N/A,,Scattered Clouds,140,2013-03-04 02:35:00
8:55 PM,33.3,29.1,85,29.73,10.0,SE,15.0,19.6,N/A,,Scattered Clouds,140,2013-03-04 02:55:00
9:15 PM,33.3,28.8,84,29.72,10.0,SE,15.0,19.6,N/A,,Mostly Cloudy,140,2013-03-04 03:15:00
9:35 PM,33.3,28.4,82,29.72,10.0,SE,16.1,19.6,N/A,,Overcast,130,2013-03-04 03:35:00
9:55 PM,33.1,28.6,84,29.70,10.0,SE,17.3,24.2,N/A,,Overcast,130,2013-03-04 03:55:00
10:15 PM,32.5,28.4,85,29.69,10.0,SE,17.3,-,N/A,,Mostly Cloudy,130,2013-03-04 04:15:00
10:35 PM,32.2,28.0,85,29.68,10.0,SE,19.6,-,N/A,,Scattered Clouds,140,2013-03-04 04:35:00
10:55 PM,32.0,27.9,85,29.68,10.0,SE,16.1,23.0,N/A,,Scattered Clouds,140,2013-03-04 04:55:00
11:15 PM,32.0,28.0,85,29.68,10.0,SE,13.8,19.6,N/A,,Mostly Cloudy,140,2013-03-04 05:15:00
11:35 PM,32.0,28.0,85,29.69,10.0,SE,11.5,-,N/A,,Overcast,130,2013-03-04 05:35:00
11:55 PM,32.0,27.9,85,29.69,10.0,SE,11.5,-,N/A,,Mostly Cloudy,140,2013-03-04 05:55:00